Regional Weather Roundup
Issued by NWS

Home | Current Version | Previous Version | Text Only | Print | Product List | Glossary On
Versions: 1 2 3 4 5 6 7 8 9 10 11 12 13 14 15 16 17 18 19 20 21 22 23 24 25 26 27 28 29 30 31 32 33 34 35 36 37 38 39 40 41 42 43 44 45 46 47 48 49 50
000
ASUS44 KLIX 301311
RWRLA
LOUISIANA WEATHER ROUNDUP
NATIONAL WEATHER SERVICE NEW ORLEANS LA
800 AM CDT FRI SEP 30 2016

NOTE: "FAIR" INDICATES FEW OR NO CLOUDS BELOW 12,000 FEET WITH NO
      SIGNIFICANT WEATHER AND/OR OBSTRUCTIONS TO VISIBILITY.
      SKY/WX - SKY CONDITION AND SIGNIFICANT WEATHER.
      TMP - AIR TEMPERATURE.    DP   - DEWPOINT TEMPERATURE.
      RH  - RELATIVE HUMIDITY.  PRES - PRESSURE.
      HX  - HEAT INDEX.         WCI  - WIND CHILL INDEX.

*  THESE STATIONS ARE NOT NWS OR FAA STATIONS AND ARE NOT UNDER
   NWS QUALITY CONTROL.

LAZ040-048-061>063-065-066-069-301400-
SOUTHEAST LOUISIANA

CITY           SKY/WX    TMP DP  RH WIND       PRES   REMARKS
N.O. AUDUBON   NOT AVBL
N.O. INTL ARPT MOSUNNY   73  58  59 NE10      30.11R
N.O. LAKEFRONT SUNNY     71  57  61 NE15      30.11R
N.O. DOWNTOWN*   N/A     69  54  58 VRB6      30.12R
RESERVE*       FAIR      63  60  91 CALM      30.13R
SLIDELL        SUNNY     57  54  89 N5        30.11R
BATON ROUGE    SUNNY     60  55  83 NE5       30.13R
BOOTHVILLE     MOSUNNY   76  57  51 NE7       30.09R
BELLE CHASSE   MOSUNNY   66  58  75 NE5       30.11R
BOGALUSA*      FAIR      56  53  89 CALM      30.14R
GALLIANO*      SUNNY     72  55  54 NE5       30.10R
NEW ROADS*     FAIR      59  54  85 MISG      30.14R
GONZALES*      FAIR      60  53  77 CALM      30.12R
HAMMOND*       SUNNY     57  52  82 N3        30.13R
HOUMA*         SUNNY     63  59  88 N6        30.11R
PORT FOURCHON* SUNNY     73  63  68 N14       30.09R

$$

LAZ041-044-053-054-301400-
SOUTHWEST LOUISIANA

CITY           SKY/WX    TMP DP  RH WIND       PRES   REMARKS
LAKE CHARLES   SUNNY     61  55  81 N3        30.15R
LAFAYETTE      SUNNY     61  56  83 N5        30.14R
PATTERSON      SUNNY     62  58  86 NE5       30.13R
SALT POINT     NOT AVBL
NEW IBERIA     SUNNY     60  54  80 N7        30.14R
CHENAULT AIRPK SUNNY     54  54 100 N3        30.15R

$$

LAZ027-028-301400-
CENTRAL LOUISIANA

CITY           SKY/WX    TMP DP  RH WIND       PRES   REMARKS
FORT POLK      SUNNY     56  54  92 N2        30.16R
ALEXANDRIA INT MOSUNNY   56  55  97 NW5       30.15R FOG
ALEXANDRIA     SUNNY     55  54  96 CALM      30.16R

$$

LAZ001-002-301400-
NORTHWEST LOUISIANA

CITY           SKY/WX    TMP DP  RH WIND       PRES   REMARKS
SHREVEPORT     PTCLDY    58  55  90 NW3       30.18R
BARKSDALE AFB  CLEAR     56  55  95 N3        30.18R
DTN SHREVEPORT CLEAR     58  53  84 NW5       30.18R

$$

LAZ014-016-301400-
NORTHEAST LOUISIANA

CITY           SKY/WX    TMP DP  RH WIND       PRES   REMARKS
MONROE         SUNNY     57  54  89 CALM      30.16R
TALLULAH       MOSUNNY   55  53  93 CALM      30.15R

$$




USA.gov is the U.S. government's official web portal to all federal, state and local government web resources and services.